Weather History for Meacham, OR

Change the Weather History Date:

Friday, August 23, 2013

  Actual Average Record
Temperature  
Mean Temperature 60 °F -  
Max Temperature 78 °F 75 °F 91 °F (1999)
Min Temperature 44 °F 37 °F 32 °F (2002)
Degree Days  
Heating Degree Days 4    
Growing Degree Days 10 (Base 50)    
Moisture  
Dew Point 46 °F    
Average Humidity 62    
Maximum Humidity 93    
Minimum Humidity 30    
Precipitation  
Precipitation 0.00 in - - ()
Sea Level Pressure  
Sea Level Pressure 29.89 in    
Wind  
Wind Speed 1 mph (North)    
Max Wind Speed 7 mph    
Max Gust Speed -    
Visibility 10 miles    
Events      
Averages and records for this station are not official NWS values.
T = Trace of Precipitation, MM = Missing Value Source: NWS Daily Summary

Daily Weather History Graph

Daily Weather History Graph

Search for Another Location

Airport:

Trip Planner

Search our weather history database for the weather conditions in past years. The results will help you decide how hot, cold, wet, or windy it might be!

Date:

Astronomy

Aug. 23, 2013 Rise Set
Actual Time 6:04 AM PDT 7:47 PM PDT
Civil Twilight 5:33 AM PDT 8:18 PM PDT
Nautical Twilight 4:54 AM PDT 8:56 PM PDT
Astronomical Twilight 4:13 AM PDT 9:37 PM PDT
Moon 8:55 PM PDT (8/23) 9:17 AM PDT (8/23)
Length of Visible Light 14h 45m
Length of Day
13h 42m
Waning Gibbous, 91% of the Moon is Illuminated
Aug 23
Waning Gibbous
Aug 28
Last Quarter
Sep 5
New
Sep 12
First Quarter
Sep 19
Full

Hourly Weather History & Observations

Time (PDT) Temp. Dew Point Humidity Pressure Visibility Wind Dir Wind Speed Gust Speed Precip Events Conditions
12:56 AM 51.1 °F 48.9 °F 92% 29.88 in 10.0 mi Calm Calm - N/A   Clear
1:56 AM 50.0 °F 46.9 °F 89% 29.88 in 10.0 mi Calm Calm - N/A   Clear
2:56 AM 48.0 °F 46.0 °F 93% 29.88 in 10.0 mi Calm Calm - N/A   Clear
3:56 AM 46.9 °F 44.1 °F 90% 29.90 in 9.0 mi Calm Calm - N/A   Clear
4:56 AM 45.0 °F 42.1 °F 90% 29.91 in 9.0 mi Calm Calm - N/A   Clear
5:56 AM 44.1 °F 41.0 °F 89% 29.92 in 8.0 mi Calm Calm - N/A   Clear
6:56 AM 45.0 °F 43.0 °F 93% 29.94 in 10.0 mi Calm Calm - N/A   Clear
7:56 AM 52.0 °F 46.9 °F 83% 29.94 in 10.0 mi Calm Calm - N/A   Clear
8:56 AM 64.0 °F 53.1 °F 67% 29.90 in 10.0 mi Calm Calm - N/A   Clear
9:56 AM 69.1 °F 50.0 °F 51% 29.90 in 10.0 mi Variable 6.9 mph - N/A   Clear
10:56 AM 70.0 °F 48.9 °F 47% 29.90 in 10.0 mi Variable 4.6 mph - N/A   Mostly Cloudy
11:56 AM 71.1 °F 48.9 °F 45% 29.89 in 10.0 mi Calm Calm - N/A   Mostly Cloudy
12:56 PM 75.0 °F 48.9 °F 40% 29.89 in 10.0 mi Variable 4.6 mph - N/A   Partly Cloudy
1:56 PM 75.0 °F 45.0 °F 34% 29.89 in 10.0 mi Variable 5.8 mph - N/A   Clear
2:56 PM 75.9 °F 45.0 °F 33% 29.88 in 10.0 mi Variable 5.8 mph - N/A   Clear
3:56 PM 77.0 °F 43.0 °F 30% 29.87 in 10.0 mi Calm Calm - N/A   Clear
4:56 PM 77.0 °F 43.0 °F 30% 29.86 in 10.0 mi Variable 5.8 mph - N/A   Clear
5:56 PM 75.0 °F 45.0 °F 34% 29.87 in 10.0 mi Variable 3.5 mph - N/A   Clear
6:56 PM 71.1 °F 46.0 °F 41% 29.88 in 10.0 mi Variable 3.5 mph - N/A   Clear
7:56 PM 66.0 °F 45.0 °F 47% 29.88 in 10.0 mi Calm Calm - N/A   Clear
8:56 PM 60.1 °F 45.0 °F 57% 29.88 in 10.0 mi Calm Calm - N/A   Clear
9:56 PM 55.0 °F 45.0 °F 69% 29.88 in 10.0 mi Calm Calm - N/A   Clear
10:56 PM 52.0 °F 44.1 °F 74% 29.89 in 10.0 mi Calm Calm - N/A   Clear
11:56 PM 48.9 °F 43.0 °F 80% 29.90 in 10.0 mi Calm Calm - N/A   Clear